Regional Weather Roundup
Issued by NWS Green Bay, WI

Home | Current Version | Previous Version | Graphics & Text | Print | Product List | Glossary Off
Versions: 1 2 3 4 5 6 7 8 9 10 11 12 13 14 15 16 17 18 19 20 21 22 23 24 25 26 27 28 29 30 31 32 33 34 35 36 37 38 39 40 41 42 43 44 45 46 47 48 49 50

000
ASUS43 KGRB 280359
RWRGRB

NORTH-CENTRAL AND NORTHEAST WISCONSIN REGIONAL WEATHER ROUNDUP
NATIONAL WEATHER SERVICE GREEN BAY WI
1100 PM CDT WED AUG 27 2014

WIZ005-009-010>012-018-019-280500-
NORTH CENTRAL WISCONSIN

CITY           SKY/WX    TMP DP  RH WIND       PRES   REMARKS
IRONWOOD       NOT AVBL
MANITOWISH WTR NOT AVBL
ARBOR VITAE    NOT AVBL
EAGLE RIVER    NOT AVBL
LAND O LAKES   NOT AVBL
RHINELANDER    CLEAR     52  48  86 CALM      30.19R
PHILLIPS       NOT AVBL
ANTIGO         NOT AVBL
TOMAHAWK       NOT AVBL
MERRILL        NOT AVBL
$$

WIZ013-073-280500-
NORTHEAST WISCONSIN

CITY           SKY/WX    TMP DP  RH WIND       PRES   REMARKS
IRON MOUNTAIN  CLEAR     53  48  83 CALM      30.17R
MARINETTE      MOCLDY    57  55  94 SE10      30.14R
$$

WIZ017-030-035>037-045-280500-
CENTRAL WISCONSIN

CITY           SKY/WX    TMP DP  RH WIND       PRES   REMARKS
MEDFORD        NOT AVBL
WAUSAU         CLEAR     58  53  84 NW3       30.15R
MOSINEE        NOT AVBL
MARSHFIELD     CLEAR     59  53  80 N5        30.16R
WISC RAPIDS    CLEAR     58  56  93 CALM      30.16R
STEVENS POINT  NOT AVBL
WAUPACA        NOT AVBL
SHAWANO        MOCLDY    60  57  90 CALM      30.15R
CLINTONVILLE   NOT AVBL
$$

WIZ038-039-048-051-280500-
FOX VALLEY

CITY           SKY/WX    TMP DP  RH WIND       PRES   REMARKS
NWS GREEN BAY  CLEAR     58  56  93 S3        30.15S
APPLETON       MOCLDY    63  57  82 SE7       30.15S
OSHKOSH        CLEAR     61  58  90 S6        30.15R
FOND DU LAC    CLEAR     61  56  83 S6        30.16R
$$

WIZ022-050-052-280500-
EAST CENTRAL WISCONSIN

CITY           SKY/WX    TMP DP  RH WIND       PRES   REMARKS
STURGEON BAY   CLEAR     59  54  82 SE5       30.16S
MANITOWOC      NOT AVBL
SHEBOYGAN      CLEAR     56  54  93 CALM      30.16R
$$

LMZ563-521-522-541>543-280500-
LAKESHORE

STATION/POSITION TIME  TEMP    WIND        PRES    VSBY  WAVE
                       AIR SEA DIR/SP/G                  HT/PER
                 (UTC) (F)     (DEG/KT/KT) (MB)    (MI)  (FT/S)
SHEBOYGAN LKSHOR 0300   66 68   90/  7/  8 1021.2R
KEWAUNEE LKSHORE 0300   59      CALM  /  2 1020.0R
NORTHPORT PIER   0300   64      90/  8/ 10 1021.0R
N MID LAKE BUOY  0300   64 66   50/ 10/ 12 1021.0F         0
S GREEN BAY BUOY 0300   65     VRB 10      1021.4R
CHAMBERS ISLAND  0300   62     100/  4/  6 1021.0S
MENOMINEE LKSHOR 0300   65     110/  9/ 11 1021.3R
$$



USA.gov is the U.S. government's official web portal to all federal, state and local government web resources and services.